• In Slovakia
  • List of Countries
  • For 7 days
  • Water Temperature
  • Satellite Maps
  • Weather Map
  • Weather Widgets
  • user-avatar
    Login

    Hourly Weather Saurimo

    Today, 22 June, Friday

    Time Temperature Precipitation Wind Pressure Humidity
    00:00 +18°C° 0 mm 2 mps 672 mmHg 42%
    01:00 +17°C° 0 mm 2 mps 672 mmHg 43%
    02:00 +17°C° 0 mm 2 mps 672 mmHg 44%
    03:00 +17°C° 0 mm 2 mps 672 mmHg 44%
    04:00 +16°C° 0 mm 2 mps 672 mmHg 44%
    05:00 +17°C° 0 mm 2 mps 673 mmHg 43%
    06:00 +17°C° 0 mm 2 mps 673 mmHg 42%
    07:00 +18°C° 0 mm 3 mps 673 mmHg 41%
    08:00 +21°C° 0 mm 3 mps 674 mmHg 35%
    09:00 +25°C° 0 mm 3 mps 674 mmHg 29%
    10:00 +29°C° 0 mm 3 mps 675 mmHg 23%
    11:00 +30°C° 0 mm 3 mps 675 mmHg 21%
    12:00 +32°C° 0 mm 2 mps 674 mmHg 19%
    13:00 +34°C° 0 mm 2 mps 674 mmHg 18%
    14:00 +34°C° 0 mm 2 mps 673 mmHg 18%
    15:00 +32°C° 0 mm 1 mps 673 mmHg 19%
    16:00 +32°C° 0 mm 1 mps 672 mmHg 19%
    17:00 +29°C° 0 mm 1 mps 672 mmHg 23%
    18:00 +27°C° 0 mm 1 mps 672 mmHg 28%
    19:00 +24°C° 0 mm 1 mps 672 mmHg 32%
    20:00 +23°C° 0 mm 1 mps 672 mmHg 33%
    21:00 +23°C° 0 mm 2 mps 672 mmHg 34%
    22:00 +21°C° 0 mm 2 mps 673 mmHg 35%
    23:00 +21°C° 0 mm 2 mps 672 mmHg 36%

    Tomorrow, 23 June, Saturday

    Time Temperature Precipitation Wind Pressure Humidity
    00:00 +20°C° 0 mm 2 mps 672 mmHg 36%
    01:00 +20°C° 0 mm 2 mps 672 mmHg 37%
    02:00 +19°C° 0 mm 2 mps 672 mmHg 37%
    03:00 +19°C° 0 mm 2 mps 672 mmHg 38%
    04:00 +18°C° 0 mm 2 mps 671 mmHg 39%
    05:00 +18°C° 0 mm 2 mps 672 mmHg 38%
    06:00 +18°C° 0 mm 3 mps 672 mmHg 38%
    07:00 +18°C° 0 mm 3 mps 672 mmHg 38%
    08:00 +21°C° 0 mm 3 mps 673 mmHg 34%
    09:00 +26°C° 0 mm 3 mps 674 mmHg 29%
    10:00 +29°C° 0 mm 3 mps 674 mmHg 24%
    11:00 +30°C° 0 mm 3 mps 674 mmHg 22%
    12:00 +32°C° 0 mm 2 mps 673 mmHg 20%
    13:00 +35°C° 0 mm 2 mps 673 mmHg 18%
    14:00 +34°C° 0 mm 2 mps 672 mmHg 18%
    15:00 +34°C° 0 mm 2 mps 672 mmHg 18%
    16:00 +32°C° 0 mm 1 mps 671 mmHg 19%
    17:00 +30°C° 0 mm 1 mps 671 mmHg 23%
    18:00 +27°C° 0 mm 1 mps 671 mmHg 27%
    19:00 +24°C° 0 mm 1 mps 671 mmHg 31%
    20:00 +23°C° 0 mm 1 mps 671 mmHg 32%
    21:00 +23°C° 0 mm 2 mps 671 mmHg 34%
    22:00 +21°C° 0 mm 2 mps 672 mmHg 35%
    23:00 +20°C° 0 mm 2 mps 671 mmHg 36%

    Day after tomorrow, 24 June, Sunday

    Time Temperature Precipitation Wind Pressure Humidity
    00:00 +19°C° 0 mm 2 mps 671 mmHg 38%
    01:00 +20°C° 0 mm 1 mps 671 mmHg 39%
    02:00 +19°C° 0 mm 2 mps 671 mmHg 39%
    03:00 +19°C° 0 mm 2 mps 671 mmHg 39%
    04:00 +18°C° 0 mm 2 mps 671 mmHg 39%
    05:00 +19°C° 0 mm 2 mps 671 mmHg 41%
    06:00 +19°C° 0 mm 2 mps 672 mmHg 43%
    07:00 +19°C° 0 mm 2 mps 672 mmHg 45%
    08:00 +22°C° 0 mm 3 mps 673 mmHg 40%
    09:00 +26°C° 0 mm 3 mps 674 mmHg 35%
    10:00 +29°C° 0 mm 3 mps 674 mmHg 30%
    11:00 +30°C° 0 mm 3 mps 674 mmHg 26%
    12:00 +32°C° 0 mm 2 mps 673 mmHg 23%
    13:00 +34°C° 0 mm 2 mps 673 mmHg 20%
    14:00 +34°C° 0 mm 2 mps 672 mmHg 20%
    15:00 +32°C° 0 mm 2 mps 671 mmHg 20%
    16:00 +32°C° 0 mm 2 mps 671 mmHg 20%
    17:00 +29°C° 0 mm 1 mps 671 mmHg 24%
    18:00 +27°C° 0 mm 1 mps 671 mmHg 28%
    19:00 +24°C° 0 mm 1 mps 671 mmHg 32%
    20:00 +23°C° 0 mm 1 mps 671 mmHg 34%
    21:00 +23°C° 0 mm 1 mps 671 mmHg 36%
    22:00 +21°C° 0 mm 2 mps 671 mmHg 38%
    23:00 +20°C° 0 mm 2 mps 671 mmHg 39%

    25 June, Monday

    Time Temperature Precipitation Wind Pressure Humidity
    00:00 +19°C° 0 mm 2 mps 671 mmHg 40%
    01:00 +19°C° 0 mm 2 mps 670 mmHg 41%
    02:00 +18°C° 0 mm 2 mps 670 mmHg 42%
    03:00 +18°C° 0 mm 2 mps 670 mmHg 42%
    04:00 +17°C° 0 mm 2 mps 670 mmHg 43%
    05:00 +18°C° 0 mm 2 mps 670 mmHg 42%
    06:00 +18°C° 0 mm 2 mps 671 mmHg 41%
    07:00 +18°C° 0 mm 2 mps 672 mmHg 40%
    08:00 +21°C° 0 mm 2 mps 672 mmHg 36%
    09:00 +25°C° 0 mm 3 mps 673 mmHg 32%
    10:00 +29°C° 0 mm 3 mps 673 mmHg 28%
    11:00 +30°C° 0 mm 2 mps 673 mmHg 25%
    12:00 +32°C° 0 mm 2 mps 672 mmHg 22%
    13:00 +35°C° 0 mm 2 mps 672 mmHg 20%
    14:00 +34°C° 0 mm 2 mps 672 mmHg 21%
    15:00 +32°C° 0 mm 2 mps 671 mmHg 22%
    16:00 +31°C° 0 mm 2 mps 671 mmHg 23%
    17:00 +29°C° 0 mm 2 mps 671 mmHg 27%
    18:00 +27°C° 0 mm 2 mps 671 mmHg 31%
    19:00 +25°C° 0 mm 2 mps 671 mmHg 35%
    20:00 +24°C° 0 mm 2 mps 671 mmHg 37%
    21:00 +23°C° 0 mm 2 mps 671 mmHg 39%
    22:00 +22°C° 0 mm 1 mps 671 mmHg 41%
    23:00 +21°C° 0 mm 1 mps 671 mmHg 42%

    26 June, Tuesday

    Time Temperature Precipitation Wind Pressure Humidity
    00:00 +20°C° 0 mm 2 mps 671 mmHg 43%
    01:00 +19°C° 0 mm 2 mps 670 mmHg 45%
    02:00 +19°C° 0 mm 2 mps 670 mmHg 45%
    03:00 +19°C° 0 mm 2 mps 670 mmHg 45%
    04:00 +18°C° 0 mm 2 mps 670 mmHg 45%
    05:00 +19°C° 0 mm 2 mps 670 mmHg 42%
    06:00 +19°C° 0 mm 3 mps 671 mmHg 38%
    07:00 +20°C° 0 mm 3 mps 672 mmHg 35%
    08:00 +22°C° 0 mm 3 mps 672 mmHg 32%
    09:00 +25°C° 0 mm 3 mps 673 mmHg 30%
    10:00 +28°C° 0 mm 3 mps 673 mmHg 28%
    11:00 +30°C° 0 mm 2 mps 673 mmHg 25%
    12:00 +31°C° 0 mm 2 mps 672 mmHg 22%
    13:00 +34°C° 0 mm 2 mps 672 mmHg 20%
    14:00 +34°C° 0 mm 2 mps 672 mmHg 20%
    15:00 +32°C° 0 mm 2 mps 671 mmHg 21%
    16:00 +32°C° 0 mm 2 mps 671 mmHg 22%
    17:00 +29°C° 0 mm 2 mps 671 mmHg 26%
    18:00 +27°C° 0 mm 2 mps 671 mmHg 30%
    19:00 +24°C° 0 mm 1 mps 671 mmHg 35%
    20:00 +23°C° 0 mm 1 mps 671 mmHg 37%
    21:00 +23°C° 0 mm 1 mps 671 mmHg 38%
    22:00 +22°C° 0 mm 1 mps 671 mmHg 40%
    23:00 +21°C° 0 mm 1 mps 671 mmHg 42%

    27 June, Wednesday

    Time Temperature Precipitation Wind Pressure Humidity
    00:00 +21°C° 0 mm 1 mps 670 mmHg 43%
    01:00 +19°C° 0 mm 2 mps 670 mmHg 44%
    02:00 +19°C° 0 mm 2 mps 670 mmHg 44%
    03:00 +18°C° 0 mm 2 mps 670 mmHg 45%
    04:00 +18°C° 0 mm 2 mps 670 mmHg 45%
    05:00 +18°C° 0 mm 2 mps 671 mmHg 43%
    06:00 +19°C° 0 mm 3 mps 671 mmHg 41%
    07:00 +19°C° 0 mm 3 mps 672 mmHg 39%
    08:00 +22°C° 0 mm 3 mps 672 mmHg 34%
    09:00 +27°C° 0 mm 3 mps 673 mmHg 29%
    10:00 +30°C° 0 mm 4 mps 673 mmHg 24%
    11:00 +31°C° 0 mm 3 mps 673 mmHg 22%
    12:00 +34°C° 0 mm 3 mps 672 mmHg 20%
    13:00 +35°C° 0 mm 2 mps 672 mmHg 17%
    14:00 +35°C° 0 mm 2 mps 671 mmHg 18%
    15:00 +34°C° 0 mm 2 mps 671 mmHg 18%
    16:00 +34°C° 0 mm 2 mps 671 mmHg 19%
    17:00 +30°C° 0 mm 2 mps 670 mmHg 23%
    18:00 +27°C° 0 mm 2 mps 670 mmHg 27%
    19:00 +25°C° 0 mm 2 mps 670 mmHg 31%
    20:00 +24°C° 0 mm 2 mps 671 mmHg 33%
    21:00 +23°C° 0 mm 2 mps 671 mmHg 35%
    22:00 +21°C° 0 mm 2 mps 671 mmHg 36%
    23:00 +21°C° 0 mm 2 mps 671 mmHg 37%
    Show more